WGS F8 (USA 272)

Last updated on Thu Nov 06 2025 00:02:48 GMT+0000 (Coordinated Universal Time)

1 41879U 16075A 25308.61989237 -.00000189 00000+0 00000+0 0 9998 2 41879 0.0137 292.1096 0000121 266.3577 218.6426 1.00272623 32569
UTC large
Height (km)
Speed (km/s)
/
Latitude / Longitude
Inclination (degrees)
Orbital Period (minutes)
Azimuth
Elevation
Range (km)
Doppler Factor

Next 0 passes for location: London (51.5072 / 0.1276)

Sorry there are no passes over London.